Location: Bothwell
(41.7170°N, 112.2589°W)
Time: 00:48:06
(UTC+00:00)

Transit 4A - All Passes

Search period start: 12 May 2026 00:00
Search period end: 22 May 2026 00:00
Orbit: 861 x 980 km, 66.8° (Epoch: 11 May)

Date Brightness Start Highest point End Pass type
(mag) Time Alt. Az. Time Alt. Az. Time Alt. Az.
12 May - 00:03:34 10° NNW 00:09:21 34° NE 00:15:05 10° ESE daylight
12 May - 01:49:45 10° NW 01:55:53 49° WSW 02:01:56 10° S daylight
12 May - 15:10:20 10° S 15:15:51 38° ESE 15:21:35 10° NE daylight
12 May - 16:56:25 10° WSW 17:02:09 40° NW 17:08:04 10° NNE daylight
12 May - 18:48:54 10° NW 18:50:25 11° NNW 18:51:57 10° NNW daylight
12 May - 22:27:40 10° N 22:30:14 12° NNE 22:32:47 10° NE daylight
13 May - 00:12:08 10° NNW 00:18:18 46° NE 00:24:23 10° SE daylight
13 May - 01:58:49 10° NW 02:04:28 33° WSW 02:10:01 10° S daylight
13 May - 15:18:32 10° S 15:24:27 56° ESE 15:30:35 10° NE daylight
13 May - 17:05:50 10° WSW 17:11:08 29° NW 17:16:36 10° NNE daylight
13 May - 22:35:43 10° N 22:39:30 16° NE 22:43:18 10° ENE daylight
14 May - 00:20:46 10° NNW 00:27:10 64° ENE 00:33:28 10° SE daylight
14 May - 02:08:08 10° NW 02:12:57 23° WSW 02:17:43 10° SSW daylight
14 May - 13:45:41 10° ESE 13:47:52 12° E 13:50:04 10° E daylight
14 May - 15:27:01 10° SSW 15:33:06 81° ESE 15:39:26 10° NNE daylight
14 May - 17:15:29 10° W 17:20:13 22° NW 17:25:03 10° N daylight
14 May - 22:44:00 10° N 22:48:42 21° NE 22:53:23 10° E daylight
15 May - 00:29:29 10° NNW 00:35:56 89° NE 00:42:18 10° SSE daylight
15 May - 02:17:59 10° WNW 02:21:23 15° WSW 02:24:45 10° SW daylight
15 May - 13:52:09 10° SSE 13:56:15 19° ESE 14:00:26 10° ENE daylight
15 May - 15:35:46 10° SW 15:41:52 72° WNW 15:48:11 10° NNE daylight
15 May - 17:25:27 10° WNW 17:29:23 17° NW 17:33:23 10° N daylight
15 May - 22:52:26 10° NNW 22:57:49 27° NE 23:03:09 10° ESE daylight
16 May - 00:38:18 10° NW 00:44:39 65° WSW 00:50:54 10° SSE daylight
16 May - 13:59:37 10° SSE 14:04:42 28° ESE 14:09:56 10° NE daylight
16 May - 15:44:44 10° SW 15:50:41 51° NW 15:56:51 10° NNE daylight
16 May - 17:35:47 10° WNW 17:38:38 13° NNW 17:41:31 10° N daylight
16 May - 21:17:36 10° NNE 21:18:26 10° NNE 21:19:15 10° NNE daylight
16 May - 23:00:56 10° NNW 23:06:50 36° NE 23:12:39 10° ESE daylight
17 May - 00:47:14 10° NW 00:53:16 45° WSW 00:59:13 10° S daylight
17 May - 14:07:34 10° S 14:13:13 42° ESE 14:19:05 10° NE daylight
17 May - 15:53:58 10° WSW 15:59:37 37° NW 16:05:27 10° NNE daylight
17 May - 17:47:10 10° NNW 17:47:59 10° NNW 17:48:48 10° NNW daylight
17 May - 21:24:53 10° N 21:27:48 13° NNE 21:30:41 10° ENE daylight
17 May - 23:09:31 10° NNW 23:15:45 50° NE 23:21:54 10° SE daylight
18 May - 00:56:21 10° NW 01:01:50 31° WSW 01:07:13 10° SSW daylight
18 May - 14:15:51 10° SSW 14:21:49 62° ESE 14:28:02 10° NE daylight
18 May - 16:03:25 10° WSW 16:08:37 27° NW 16:13:57 10° NNE daylight
18 May - 21:33:00 10° N 21:37:03 17° NE 21:41:04 10° ENE daylight
18 May - 23:18:10 10° NNW 23:24:37 70° ENE 23:30:55 10° SE daylight
19 May - 01:05:46 10° WNW 01:10:18 21° WSW 01:14:48 10° SSW daylight
19 May - 12:42:19 10° SE 12:45:11 14° E 12:48:04 10° ENE daylight
19 May - 14:24:23 10° SSW 14:30:31 88° ESE 14:36:52 10° NNE daylight
19 May - 16:13:09 10° W 16:17:43 21° NW 16:22:23 10° N daylight
19 May - 21:41:20 10° N 21:46:14 22° NE 21:51:04 10° E daylight
19 May - 23:26:55 10° NNW 23:33:22 84° WSW 23:39:42 10° SSE daylight
20 May - 01:15:50 10° WNW 01:18:42 13° W 01:21:33 10° SW daylight
20 May - 12:49:10 10° SSE 12:53:35 21° ESE 12:58:05 10° ENE daylight
20 May - 14:33:12 10° SW 14:39:17 66° WNW 14:45:36 10° NNE daylight
20 May - 16:23:11 10° WNW 16:26:55 16° NW 16:30:41 10° N daylight
20 May - 21:49:47 10° NNW 21:55:18 29° NE 22:00:45 10° ESE daylight
20 May - 23:35:45 10° NW 23:42:03 59° WSW 23:48:13 10° SSE daylight
21 May - 12:56:47 10° SSE 13:02:03 31° ESE 13:07:28 10° NE daylight
21 May - 14:42:14 10° SW 14:48:08 47° NW 14:54:15 10° NNE daylight
21 May - 16:33:39 10° NW 16:36:11 12° NNW 16:38:45 10° N daylight
21 May - 20:14:25 10° NNE 20:16:00 11° NNE 20:17:35 10° NE daylight
21 May - 21:58:19 10° NNW 22:04:18 39° NE 22:10:12 10° ESE daylight
21 May - 23:44:44 10° NW 23:50:39 41° WSW 23:56:29 10° S daylight
